Home > Time Zones > World Clock > Weather > Iran > Tehran > Past weeks

Flag for Iran Weather past 2 weeks in Tehran, Iran

Now
50 °F

Sunny.


Feels Like: 41 °F
Forecast: 30 / 55 °F
Wind: 35 mph from West

Location: Tehran-Mehrabad

Current Time: Mar 6, 2015 at 4:52:30 PM

Latest Report: Mar 6, 2015 at 4:30 PM


Visibility: 10 mi

Pressure: 30.21 "Hg

Humidity: 19%

Dew point: 9 °F

Location of TehranLocation

Historic Weather in Tehran — Graph

°F

Tehran temperature yesterday

Maximum temperature yesterday: 55 °F (at 3:30 PM)
Minimum temperature yesterday: 37 °F (at 11:30 PM)
Average temperature yesterday: 49 °F

Past Weeks' High & Low Weather Summary

 TemperatureHumidityPressure
High63 °F (Mar 1, 2:30 PM)93% (Feb 21, 11:00 PM)30.30 "Hg (Feb 21, 11:00 PM)
Low27 °F (Feb 22, 5:30 AM)13% (Mar 2, 1:30 PM)29.56 "Hg (Feb 20, 10:30 PM)
Average44 °F48%29.97 "Hg
* Reported Feb 19 3:30 PM — Mar 6 3:30 PM, Tehran, Weather by CustomWeather, © 2015

Note: Actual official high and low records may vary slightly from our data, if they occured in-between our weather recording intervals... More about our weather records

Advertising

Tehran weather history for previous 24 hours

 ConditionsComfort  
Time TempWeatherWind HumidityBarometerVisibility
3:30 PM
Fri, Mar 6
50 °FSunny.32 mph20%30.21 "Hg10 mi
3:00 PM50 °FPassing clouds.30 mph22%30.21 "HgN/A
2:30 PM52 °FPassing clouds.23 mph20%30.21 "HgN/A
2:00 PM50 °FPassing clouds.23 mph20%30.21 "HgN/A
1:30 PM50 °FPassing clouds.21 mph24%30.21 "HgN/A
1:00 PM50 °FPassing clouds.23 mph24%30.24 "HgN/A
12:30 PM50 °FPassing clouds.21 mph24%30.24 "HgN/A
12:00 PM48 °FPassing clouds.16 mph23%30.24 "HgN/A
11:30 AM48 °FPassing clouds.21 mph27%30.24 "HgN/A
11:00 AM46 °FPassing clouds.18 mph25%30.21 "HgN/A
10:30 AM46 °FPassing clouds.21 mph32%30.21 "HgN/A
10:00 AM45 °FPassing clouds.16 mph27%30.21 "HgN/A
9:30 AM45 °FPassing clouds.18 mph27%30.18 "HgN/A
9:00 AM41 °FPassing clouds.21 mph33%30.18 "HgN/A
8:30 AM39 °FPassing clouds.5 mph39%30.15 "HgN/A
8:00 AM37 °FPassing clouds.16 mph38%30.12 "HgN/A
7:30 AM36 °FScattered clouds.12 mph48%30.12 "HgN/A
7:00 AM34 °FPartly sunny.12 mph81%30.09 "HgN/A
6:30 AM34 °FPassing clouds.12 mph81%30.09 "HgN/A
6:00 AM34 °FPassing clouds.7 mph65%30.07 "HgN/A
5:30 AM34 °FPassing clouds.7 mph65%30.07 "HgN/A
5:00 AM34 °FClear.14 mph60%30.04 "Hg10 mi
4:30 AM34 °FClear.14 mph60%30.04 "Hg10 mi
4:00 AM34 °FPassing clouds.21 mph65%30.01 "HgN/A
3:30 AM34 °FPassing clouds.21 mph65%30.01 "HgN/A
3:00 AM34 °FPassing clouds.35 mph65%30.01 "HgN/A
2:30 AM34 °FPassing clouds.35 mph65%30.01 "HgN/A
2:00 AM37 °FPassing clouds.21 mph60%30.01 "HgN/A
1:30 AM37 °FPassing clouds.21 mph60%30.01 "HgN/A
1:00 AM37 °FPassing clouds.20 mph60%29.98 "HgN/A
12:00 AM37 °FPassing clouds.28 mph65%29.98 "HgN/A
11:30 PM
Thu, Mar 5
37 °FPassing clouds.28 mph65%29.98 "HgN/A
11:00 PM39 °FPassing clouds.30 mph70%29.98 "HgN/A
10:30 PM41 °FPassing clouds.18 mph70%29.98 "HgN/A
10:00 PM45 °FPassing clouds.15 mph61%29.98 "HgN/A
9:30 PM45 °FPassing clouds.7 mph71%29.98 "HgN/A
9:00 PM46 °FPassing clouds.7 mph62%29.98 "HgN/A
8:30 PM45 °FPassing clouds.5 mph71%29.95 "HgN/A
8:00 PM45 °FSprinkles. Overcast.21 mph66%29.98 "Hg6 mi
7:30 PM52 °FPartly cloudy.21 mph30%29.92 "HgN/A
7:00 PM52 °FPassing clouds.7 mph30%29.92 "HgN/A
6:30 PM54 °FBroken clouds.9 mph28%29.92 "HgN/A
6:00 PM54 °FBroken clouds.9 mph28%29.92 "HgN/A
5:30 PM54 °FScattered clouds.12 mph28%29.92 "HgN/A
5:00 PM55 °FPassing clouds.14 mph24%29.92 "HgN/A
4:30 PM55 °FPassing clouds.14 mph24%29.92 "HgN/A
4:00 PM55 °FPassing clouds.16 mph24%29.92 "HgN/A
Weather by CustomWeather, © 2015

See weather overviewHow to use our weather pages